Tracking 21992 objects as of 27-Nov-2020
HD Live streaming from Space Station
objects crossing your sky now

PROX-1 (NANOSAT-7)

Track PROX-1 (NANOSAT-7) now!
10-day predictions
PROX-1 (NANOSAT-7) is classified as:


NORAD ID: 44339
Int'l Code: 2019-036A
Perigee: 714.6 km
Apogee: 729.9 km
Inclination: 24.0 °
Period: 99.1 minutes
Semi major axis: 7093 km
RCS: Unknown
Launch date: June 25, 2019
Source: United States (US)
Launch site: AIR FORCE EASTERN TEST RANGE (AFETR)

Uplink (MHz): 437.345
Downlink (MHz): 2300.000
Beacon (MHz):
Mode:
Call sign:
Status: Unknown

aabbcc
Your satellite tracking list
Your tracking list is empty




NASA's NSSDC Master Catalog

Two Line Element Set (TLE):
1 44339U 19036A   20331.88937399 +.00001280 +00000-0 +25294-3 0  9993
2 44339 023.9985 169.6310 0010805 128.4458 231.7004 14.53234584075764
Source of the keplerian elements: AFSPC